Location: Blackpool
(53.8200°N, 3.0410°W)
Time: 07:33:15
(UTC+01:00)

Envisat - Visible Passes

Search period start: 22 October 2017 00:00
Search period end: 31 October 2017 23:00
Orbit: 764 x 766 km, 98.2° (Epoch: 21 October)

Date Brightness Start Highest point End Pass type
(mag) Time Alt. Az. Time Alt. Az. Time Alt. Az.
22 Oct 4.6 18:44:26 10° E 18:47:18 15° NE 18:50:11 10° NNE visible
22 Oct 2.9 20:24:10 48° SE 20:25:28 67° ENE 20:30:32 10° N visible
22 Oct 5.0 22:04:23 22° W 22:04:58 23° W 22:08:59 10° NW visible
23 Oct 3.5 19:47:11 28° ESE 19:48:55 37° ENE 19:53:35 10° N visible
23 Oct 4.0 21:27:24 41° WSW 21:27:55 42° W 21:32:47 10° NNW visible
24 Oct 4.2 19:10:11 16° E 19:12:33 22° NE 19:16:23 10° N visible
24 Oct 3.0 20:50:25 67° S 20:51:04 80° WSW 20:56:12 10° NNW visible
24 Oct 5.6 22:30:38 14° W 22:30:56 15° W 22:33:43 10° NW visible
25 Oct 4.8 18:34:03 10° ENE 18:36:22 13° NE 18:38:41 10° NNE visible
25 Oct 3.0 20:13:25 48° ESE 20:14:23 56° ENE 20:19:23 10° N visible
25 Oct 4.7 21:53:38 27° W 21:53:45 27° W 21:58:05 10° NW visible
26 Oct 3.8 19:36:26 27° E 19:37:54 31° ENE 19:42:21 10° N visible
26 Oct 3.6 21:16:39 51° WSW 21:16:45 51° W 21:21:44 10° NNW visible
27 Oct 4.4 18:59:27 15° E 19:01:35 19° NE 19:05:03 10° N visible
27 Oct 2.8 20:39:39 79° SE 20:39:57 86° ENE 20:45:05 10° NNW visible
27 Oct 5.4 22:19:52 18° W 22:19:52 18° W 22:23:04 10° NW visible
28 Oct 4.9 18:23:54 10° ENE 18:25:26 11° NE 18:26:59 10° NNE visible
28 Oct 3.2 20:02:40 44° E 20:03:20 47° ENE 20:08:12 10° N visible
28 Oct 4.5 21:42:52 32° W 21:42:52 32° W 21:47:07 10° NNW visible
29 Oct 4.0 18:25:40 24° E 18:26:53 27° ENE 18:31:07 10° N visible
29 Oct 3.4 20:05:53 61° W 20:05:53 61° W 20:10:40 10° NNW visible
29 Oct 5.9 21:46:06 11° WNW 21:46:06 11° WNW 21:46:59 10° WNW visible
30 Oct 4.6 17:48:40 13° ENE 17:50:38 16° NE 17:53:41 10° NNE visible
30 Oct 2.8 19:28:53 72° ENE 19:28:53 72° ENE 19:33:56 10° NNW visible
30 Oct 5.2 21:09:06 21° WNW 21:09:06 21° WNW 21:12:16 10° NW visible
31 Oct 3.4 18:51:53 39° ENE 18:52:17 39° ENE 18:57:00 10° N visible
31 Oct 4.3 20:32:06 37° WNW 20:32:06 37° WNW 20:36:07 10° NNW visible
